EW6866 Weather Reports


time (UTC)temp
F
wind
direction
speed
knots
gust
knots
rain 1hr
in
rain 24hr
in
rain mn
in
humidity
%
barometer
mb
20260901184505 96 156 0.0 4.3 0.00 0.00 0.00 60 1015.4
20260901183004 95 214 0.0 4.3 0.00 0.00 0.00 63 1015.6
20260901181504 95 202 0.9 4.3 0.00 0.00 0.00 63 1015.5
20260901180005 95 227 0.0 1.7 0.00 0.00 0.00 63 1015.7
20260901174525 94 231 0.9 3.5 0.00 0.00 0.00 64 1015.7
20260901173004 94 185 0.9 4.3 0.00 0.00 0.00 64 1015.8
20260901171504 94 158 0.9 4.3 0.00 0.00 0.00 63 1015.9
20260901170004 94 166 0.0 3.5 0.00 0.00 0.00 65 1016.0
20260901164504 93 128 0.0 0.9 0.00 0.00 0.00 67 1016.1
20260901163004 92 167 0.9 1.7 0.00 0.00 0.00 68 1016.3
20260901161504 93 141 0.0 1.7 0.00 0.00 0.00 66 1016.6
20260901160004 92 139 0.0 2.6 0.00 0.00 0.00 66 1016.8
20260901154504 92 167 0.0 3.5 0.00 0.00 0.00 70 1017.0
20260901153004 91 138 0.0 3.5 0.00 0.00 0.00 70 1017.2
20260901151504 90 156 0.0 4.3 0.00 0.00 0.00 73 1017.2
20260901150004 89 169 0.0 3.5 0.00 0.00 0.00 74 1017.3
20260901144504 87 148 0.9 3.5 0.00 0.00 0.00 75 1017.2
20260901143004 86 149 0.0 1.7 0.00 0.00 0.00 79 1017.2
20260901141504 85 157 0.0 2.6 0.00 0.00 0.00 81 1017.2
20260901140004 84 164 0.0 3.5 0.00 0.00 0.00 83 1017.1
20260901134504 83 156 0.0 2.6 0.00 0.00 0.00 85 1017.3
20260901133004 82 175 0.0 1.7 0.00 0.00 0.00 87 1017.3
20260901131525 81 183 0.0 3.5 0.00 0.00 0.00 89 1017.4
20260901130003 80 157 0.0 0.9 0.00 0.00 0.00 92 1017.4
20260901124525 79 187 0.0 1.7 0.00 0.00 0.00 95 1017.3
20260901123004 78 157 0.0 0.9 0.00 0.00 0.00 98 1017.2
20260901121504 77 132 0.0 0.9 0.00 0.00 0.00 99 1017.2
20260901120004 76 0 0.0 0.0 0.00 0.00 0.00 99 1017.0
20260901114503 75 0 0.0 0.0 0.00 0.00 0.00 99 1017.0
20260901113004 75 0 0.0 0.0 0.00 0.00 0.00 98 1016.8
20260901111504 74 0 0.0 0.0 0.00 0.00 0.00 98 1016.7
20260901110003 74 0 0.0 0.0 0.00 0.00 0.00 98 1016.6
20260901104503 74 0 0.0 0.0 0.00 0.00 0.00 98 1016.6
20260901103004 74 0 0.0 0.0 0.00 0.00 0.00 97 1016.4
20260901101504 74 0 0.0 0.0 0.00 0.00 0.00 98 1016.4
20260901100024 74 0 0.0 0.0 0.00 0.00 0.00 98 1016.4
20260901094504 74 0 0.0 0.0 0.00 0.00 0.00 97 1016.4
20260901093004 74 0 0.0 0.0 0.00 0.00 0.00 97 1016.5
20260901091503 75 0 0.0 0.0 0.00 0.00 0.00 97 1016.5
20260901090003 75 0 0.0 0.0 0.00 0.00 0.00 97 1016.6
20260901084504 75 0 0.0 0.0 0.00 0.00 0.00 97 1016.6
20260901083003 75 0 0.0 0.0 0.00 0.00 0.00 97 1016.6
20260901081503 75 0 0.0 0.0 0.00 0.00 0.00 97 1016.8
20260901080003 75 0 0.0 0.0 0.00 0.00 0.00 97 1016.8
20260901074527 75 0 0.0 0.0 0.00 0.00 0.00 96 1016.9
20260901073005 75 0 0.0 0.0 0.00 0.00 0.00 96 1017.0
20260901071526 75 0 0.0 0.0 0.00 0.00 0.00 96 1017.1
20260901070027 75 0 0.0 0.0 0.00 0.00 0.00 96 1017.2
20260901064526 75 0 0.0 0.0 0.00 0.00 0.00 96 1017.3
20260901063026 76 0 0.0 0.0 0.00 0.00 0.00 95 1017.2
20260901061505 76 0 0.0 0.0 0.00 0.00 0.00 95 1017.3
20260901060005 76 0 0.0 0.0 0.00 0.00 0.00 95 1017.5
20260901054505 76 0 0.0 0.0 0.00 0.00 0.00 95 1017.6
20260901053005 76 0 0.0 0.0 0.00 0.00 0.00 94 1017.7
20260901051526 76 0 0.0 0.0 0.00 0.00 0.00 94 1017.6
20260901050026 77 0 0.0 0.0 0.00 0.00 0.00 94 1017.7
20260901044506 77 0 0.0 0.0 0.00 0.00 0.00 93 1017.5
20260901043005 77 0 0.0 0.0 0.00 0.00 0.00 92 1017.5
20260901041505 78 0 0.0 0.0 0.00 0.00 0.00 92 1017.5
20260901040007 78 0 0.0 0.0 0.00 0.00 0.00 91 1017.5
20260901034505 78 0 0.0 0.0 0.00 0.00 0.00 90 1017.4
20260901033005 79 224 0.0 0.9 0.00 0.00 0.00 89 1017.4
20260901031505 79 153 0.0 1.7 0.00 0.00 0.00 88 1017.5
20260901030005 80 238 0.0 0.9 0.00 0.00 0.00 87 1017.4
20260901024505 80 265 0.0 2.6 0.00 0.00 0.00 86 1017.7
20260901023026 80 270 0.0 1.7 0.00 0.00 0.00 86 1017.6
20260901021504 81 262 0.0 0.9 0.00 0.00 0.00 86 1017.6
20260901020005 81 256 0.0 1.7 0.00 0.00 0.00 85 1017.6
20260901014526 82 241 0.0 3.5 0.00 0.00 0.00 85 1017.5
20260901013005 82 256 0.0 0.9 0.00 0.00 0.00 85 1017.4
20260901011505 82 252 0.0 2.6 0.00 0.00 0.00 84 1017.3
20260901010004 82 280 0.0 2.6 0.00 0.00 0.00 84 1017.2
20260901004505 82 164 0.0 2.6 0.00 0.00 0.00 86 1017.0
20260901003004 82 265 0.0 0.9 0.00 0.00 0.00 86 1016.9
20260901001505 81 267 0.0 0.9 0.00 0.00 0.00 88 1016.8
20260901000004 81 0 0.0 0.0 0.00 0.00 0.00 87 1016.6
20260831234505 82 0 0.0 0.0 0.00 0.00 0.00 86 1016.7
20260831233004 83 0 0.0 0.0 0.00 0.00 0.00 83 1016.6
20260831231525 83 0 0.0 0.0 0.00 0.00 0.00 82 1016.7
20260831230005 84 0 0.0 0.0 0.00 0.00 0.00 80 1016.7
20260831224505 85 56 0.0 0.9 0.00 0.00 0.00 79 1016.9
20260831223004 85 53 0.0 0.9 0.00 0.00 0.00 78 1017.0
20260831221505 86 53 0.0 0.9 0.00 0.00 0.00 76 1016.8
20260831220005 86 51 0.0 0.9 0.00 0.00 0.00 74 1016.8
20260831214526 87 317 0.0 1.7 0.00 0.00 0.00 72 1016.8
20260831213005 89 287 0.0 2.6 0.00 0.00 0.00 64 1016.6
20260831211504 92 262 0.0 1.7 0.00 0.00 0.00 61 1016.6
20260831210005 92 271 0.0 1.7 0.00 0.00 0.00 58 1016.8
20260831204504 93 250 0.0 1.7 0.00 0.00 0.00 57 1016.9
20260831203005 93 251 0.0 0.9 0.00 0.00 0.00 53 1017.0
20260831201505 92 285 0.0 0.9 0.00 0.00 0.00 55 1016.9
20260831200025 93 277 0.0 1.7 0.00 0.00 0.00 50 1016.9
20260831194505 93 239 0.0 1.7 0.00 0.00 0.00 50 1017.1
20260831193025 92 177 0.0 0.9 0.00 0.00 0.00 50 1017.2
20260831191504 91 269 0.0 2.6 0.00 0.00 0.00 52 1017.4
20260831190005 90 259 0.9 3.5 0.00 0.00 0.00 62 1017.5